FENGYUN 1C DEB

Satellite information

Favourite Embed

Satellite Type and Status

DEBRISIN ORBIT

Key statistics

Satellite FENGYUN 1C DEB at a glance.

Uptime

9715

Days in orbit

Revolutions

≈ 14.2

Per day

Orbit

SSO

Sun Synchronous Orbit

Inclination

99.2

Latest

Satellite identification and parameters

Extended collection of information and parameters for FENGYUN 1C DEB.

Object identification

Identified? True

Debris? True

Object name: FENGYUN 1C DEB

International designator: 1999-025AXY

Object number (NORAD): 30886

Object ID (CCSDS): 30886

Country: PEOPLES REPUBLIC OF CHINA (PRC)

Current information (Y/N): Y

RCS size: SMALL

Orbital parameters

Period: 101.209 minutes

Inclination: 99.2094 deg

SMA: 7194.06 km

Apoapsis: 842.067 km

Periapsis: 789.783 km

RAAN: 240.6677 deg

Eccentricy: 0.00363383

Argument of periapsis: 31.8952 deg

Mean anomaly: 328.4414 deg

Mean motion: 14.22792789 rev/day

Mean motion (dot): 0.00004888 rev/day2

B* drag term: 0.0021840726 1/REarth

Two-line elements (TLE)

Creation date: Dec. 14, 2025, 3:07 a.m.

Reference frame: TEME

Reference center: EARTH

Epoch: Dec. 13, 2025, 3:35 p.m. UTC

TLE line 0: 0 FENGYUN 1C DEB

TLE line 1: 1 30886U 99025AXY 25347.64964710 .00004888 00000-0 21841-2 0 9994

TLE line 2: 2 30886 99.2094 240.6677 0036338 31.8952 328.4414 14.22792789964098

Live tracking on map

Real-time ground track for satellite FENGYUN 1C DEB.

In-orbit conjunctions

A list of the most updated potential collisions computed for object FENGYUN 1C DEB.

Target Orbit TCA Probability of collision Miss distance Type
THOR BURNER 2 R/B SSO 2025-01-22 23:58:11 0.0003552302 134.0 (m) ROCKET BODY
CZ-6A DEB LEO 2024-12-04 22:42:10 0.000234014 543.0 (m) DEBRIS
FENGYUN 1C DEB SSO 2024-09-27 22:05:35 0.0001649966 763.0 (m) DEBRIS
SL-16 R/B LEO 2024-07-12 03:43:47 0.0001096995 77.0 (m) ROCKET BODY

Associated space launch

Chinese polar orbiting meteorological satellite

FENGYUN 1C DEB was lifted into orbit during the mission ‘Long March 4B | Feng Yun 1C’, on board a Long March 4B space rocket.

The launch took place on May 10, 1999, 1:33 a.m. from Launch Complex 7.

For more information about the launch, click the button.

Launch to space Long March 4B | Feng Yun 1C
Long March 4B | Feng Yun 1C

Agency: N/A

Status: Launch Successful

Launch date: May 10, 1999, 1:33 a.m. UTC

Rocket: Long March 4B

Launch pad: Launch Complex 7

Location: Taiyuan Satellite Launch Center, People's Republic of China

...

Latest news about this satellite

There are no fresh news available about this satellite. Check back as we update our databases every day.


Newsletter sign-up

Weekly statistics, charts and insights to help you stay on top of the space industry.